This is the latest recevied weather packets stored in our database for station/object W1LBM. If no packets are shown the sender has not sent any weather packets the latest 10 day(s).
| Time | Temp. | Humidity | Pressure | Rain* | Wind** | Luminosity | Snow |
|---|---|---|---|---|---|---|---|
| 1777743235 | 10° C | 89% | 1014.4 hPa | 0 mm | - | 84 W/m² | - |
| 1777742934 | 10° C | 89% | 1014.6 hPa | 0 mm | - | 84 W/m² | - |
| 1777742630 | 10° C | 90% | 1014.4 hPa | 1.27 mm | - | 124 W/m² | - |
| 1777742326 | 10.56° C | 89% | 1014.5 hPa | 1.27 mm | - | 88 W/m² | - |
| 1777742023 | 10.56° C | 87% | 1014.6 hPa | 0 mm | - | 58 W/m² | - |
| 1777741720 | 10.56° C | 87% | 1014.6 hPa | 0 mm | - | 66 W/m² | - |
| 1777741416 | 10.56° C | 85% | 1014.6 hPa | 0 mm | - | 81 W/m² | - |
| 1777741112 | 11.11° C | 81% | 1014.6 hPa | 0 mm | - | 51 W/m² | - |
| 1777740810 | 11.11° C | 80% | 1014.8 hPa | 0 mm | - | 75 W/m² | - |
| 1777740507 | 11.11° C | 80% | 1014.5 hPa | 0 mm | - | 92 W/m² | - |
| 1777740204 | 11.11° C | 80% | 1014.5 hPa | 0 mm | - | 66 W/m² | - |
| 1777739900 | 11.11° C | 80% | 1014.6 hPa | 0 mm | - | 65 W/m² | - |
| 1777739596 | 11.11° C | 81% | 1014.5 hPa | 0 mm | - | 47 W/m² | - |
| 1777739294 | 11.11° C | 83% | 1014.4 hPa | 0 mm | - | 54 W/m² | - |
| 1777738990 | 11.11° C | 82% | 1014.4 hPa | 0 mm | - | 52 W/m² | - |
| 1777738688 | 11.11° C | 81% | 1014.4 hPa | 0 mm | - | 62 W/m² | - |
| 1777738383 | 11.11° C | 76% | 1014.4 hPa | 0 mm | - | 62 W/m² | - |
| 1777738081 | 11.11° C | 79% | 1014.7 hPa | 0 mm | - | 47 W/m² | - |
| 1777737780 | 11.67° C | 77% | 1014.7 hPa | 0 mm | - | 68 W/m² | - |
| 1777737478 | 11.67° C | 77% | 1014.8 hPa | 0 mm | - | 43 W/m² | - |
| 1777737176 | 12.22° C | 77% | 1014.7 hPa | 0 mm | - | 58 W/m² | - |
| 1777736871 | 12.78° C | 75% | 1014.9 hPa | 0 mm | - | 52 W/m² | - |
| 1777736258 | 12.22° C | 76% | 1014.9 hPa | 0 mm | - | 255 W/m² | - |
| 1777735955 | 12.22° C | 74% | 1014.7 hPa | 0 mm | - | 127 W/m² | - |
| 1777735652 | 12.22° C | 75% | 1014.8 hPa | 0 mm | - | 112 W/m² | - |
* Rain latest hour (hover to see other rain measurements)
** Current wind speed in m/s (hover to see current wind gust speed)